User: anonymous   Login
Location: ??????
(38.1303°N, 24.0039°E)
Time: 00:01:06
(UTC+00:00)
Language:

IRS-1D - Orbit

View from above orbital plane
View from above orbital plane
View from above satellite
View from above satellite

Ground track
Ground track

The orbit data is extracted from the following two-line orbital elements,

1 24971U 97057A   21259.60374850  .00000030  00000-0  26481-4 0  9991
2 24971  98.6158 207.5078 0052858 303.2849  56.3295 14.34047851253904
Epoch (UTC): 16 September 2021 14:29:23
Eccentricity: 0.0052858
inclination: 98.6158°
perigee height: 740 km
apogee height: 816 km
right ascension of ascending node: 207.5078°
argument of perigee: 303.2849°
revolutions per day: 14.34047851
mean anomaly at epoch: 56.3295°
orbit number at epoch: 25390

The dashed part of the orbit path shows where the satellite is in the earth's shadow,  

DLR